Flag for U.S.A. Weather past 2 weeks in Baton Rouge, Louisiana, U.S.A.

69 °F


Feels Like: 69 °F
Forecast: 66 / 77 °F
Wind: 17 mph from East

Location: Baton Rouge Metropolitan - Ryan Field

Current Time: Nov 26, 2015 at 9:20:59 PM

Latest Report: Nov 26, 2015 at 8:53 PM

Visibility: 10 mi

Pressure: 30.29 "Hg

Humidity: 79%

Dew point: 62 °F

Location of Baton RougeLocation

Historic Weather in Baton Rouge — Graph


Baton Rouge temperature yesterday

Maximum temperature yesterday: 76 °F (at 12:53 PM)
Minimum temperature yesterday: 47 °F (at 4:53 AM)
Average temperature yesterday: 63 °F

Past Weeks' High & Low Weather Summary

High83 °F (Nov 17, 11:53 AM)97% (Nov 18, 12:02 AM)30.39 "Hg (Nov 18, 12:02 AM)
Low32 °F (Nov 23, 6:53 AM)23% (Nov 14, 12:53 PM)29.69 "Hg (Nov 17, 4:53 PM)
Average59 °F70%30.13 "Hg
* Reported Nov 11 7:53 PM — Nov 26 7:53 PM, Baton Rouge, Weather by CustomWeather, © 2015

Note: Actual official high and low records may vary slightly from our data, if they occured in-between our weather recording intervals... More about our weather records


Baton Rouge weather history for previous 24 hours

Time TempWeatherWind HumidityBarometerVisibility
7:53 PM
Thu, Nov 26
69 °FOvercast.14 mph79%30.29 "Hg10 mi
6:53 PM69 °FMostly cloudy.14 mph79%30.29 "Hg10 mi
5:53 PM70 °FOvercast.16 mph79%30.29 "Hg10 mi
4:53 PM70 °FPartly sunny.13 mph79%30.28 "Hg10 mi
4:00 PM72 °FBroken clouds.21 mph73%30.27 "Hg10 mi
2:53 PM74 °FMostly cloudy.18 mph69%30.28 "Hg10 mi
1:53 PM75 °FPartly sunny.17 mph69%30.29 "Hg10 mi
12:53 PM76 °FMostly cloudy.13 mph67%30.31 "Hg10 mi
11:54 AM74 °FMostly cloudy.24 mph69%30.32 "Hg10 mi
10:53 AM72 °FPartly sunny.18 mph76%30.34 "Hg10 mi
9:53 AM69 °FOvercast.12 mph79%30.36 "Hg10 mi
8:53 AM67 °FOvercast.13 mph81%30.34 "Hg10 mi
7:53 AM63 °FMostly cloudy.9 mph87%30.33 "Hg10 mi
6:53 AM62 °FMostly cloudy.8 mph86%30.31 "Hg10 mi
5:53 AM61 °FMostly cloudy.6 mph90%30.29 "Hg10 mi
5:02 AM62 °FClear.10 mph83%30.28 "Hg10 mi
3:53 AM63 °FPassing clouds.10 mph84%30.27 "Hg10 mi
2:53 AM64 °FMostly cloudy.12 mph84%30.27 "Hg10 mi
1:53 AM64 °FOvercast.14 mph87%30.27 "Hg10 mi
12:53 AM65 °FMostly cloudy.9 mph85%30.27 "Hg10 mi
11:53 PM
Wed, Nov 25
66 °FMostly cloudy.14 mph81%30.28 "Hg10 mi
10:53 PM66 °FMostly cloudy.15 mph84%30.29 "Hg10 mi
9:53 PM67 °FMostly cloudy.15 mph81%30.27 "Hg10 mi
Weather by CustomWeather, © 2015

See weather overviewHow to use our weather pages